User: anonymous   Login
Location: Unspecified
(0.0000°N, 0.0000°E)
Time: 23:46:09
(UTC+00:00)
Language:

AL-FARABI 1 - Orbit

View from above orbital plane
View from above orbital plane
View from above satellite
View from above satellite

Ground track
Ground track

The orbit data is extracted from the following two-line orbital elements,

1 42016U 17008BW  21023.44932267  .00001857  00000-0  72078-4 0  9993
2 42016  97.3360  93.5763 0004418 260.5679  99.5061 15.27347884219098
Epoch (UTC): 23 January 2021 10:47:01
Eccentricity: 0.0004418
inclination: 97.3360°
perigee height: 481 km
apogee height: 487 km
right ascension of ascending node: 93.5763°
argument of perigee: 260.5679°
revolutions per day: 15.27347884
mean anomaly at epoch: 99.5061°
orbit number at epoch: 21909

The dashed part of the orbit path shows where the satellite is in the earth's shadow,  

DLR